TimeCDT,TemperatureF,Dew PointF,Humidity,Sea Level PressureIn,VisibilityMPH,Wind Direction,Wind SpeedMPH,Gust SpeedMPH,PrecipitationIn,Events,Conditions,WindDirDegrees,DateUTC
12:55 AM,39.9,33.1,77,29.88,10.0,WSW,8.1,-,N/A,,Mostly Cloudy,250,2013-10-19 05:55:00
1:55 AM,41.0,34.0,76,29.86,10.0,West,8.1,-,0.00,Rain,Light Rain,260,2013-10-19 06:55:00
2:55 AM,41.0,35.1,79,29.86,8.0,West,11.5,-,0.00,Rain,Rain,270,2013-10-19 07:55:00
3:55 AM,39.9,36.0,86,29.83,10.0,West,9.2,-,0.02,,Overcast,260,2013-10-19 08:55:00
4:55 AM,39.9,37.0,89,29.82,6.0,WSW,10.4,-,0.01,Rain,Light Rain,250,2013-10-19 09:55:00
5:50 AM,39.2,37.4,93,29.80,6.0,WSW,5.8,-,0.06,Rain,Rain,240,2013-10-19 10:50:00
5:55 AM,39.9,37.9,93,29.82,6.0,WSW,4.6,-,0.06,Rain,Rain,250,2013-10-19 10:55:00
6:12 AM,39.2,37.4,93,29.79,10.0,WSW,3.5,-,0.00,Rain,Light Rain,240,2013-10-19 11:12:00
6:55 AM,39.9,37.0,89,29.81,10.0,SW,6.9,-,0.00,,Overcast,220,2013-10-19 11:55:00
7:55 AM,39.0,35.1,86,29.81,10.0,WSW,6.9,-,N/A,,Mostly Cloudy,240,2013-10-19 12:55:00
8:55 AM,39.9,36.0,86,29.82,10.0,West,8.1,-,N/A,,Overcast,260,2013-10-19 13:55:00
9:55 AM,43.0,37.9,82,29.84,10.0,NW,10.4,-,N/A,,Overcast,310,2013-10-19 14:55:00
10:55 AM,46.9,39.0,74,29.84,10.0,NNW,16.1,-,N/A,,Clear,340,2013-10-19 15:55:00
11:55 AM,46.9,37.9,71,29.86,10.0,North,12.7,-,N/A,,Overcast,350,2013-10-19 16:55:00
12:55 PM,46.0,33.1,61,29.86,10.0,NNW,12.7,19.6,N/A,,Overcast,340,2013-10-19 17:55:00
1:55 PM,46.9,33.1,59,29.84,10.0,NW,9.2,-,N/A,,Overcast,320,2013-10-19 18:55:00
2:55 PM,48.9,34.0,56,29.84,10.0,NNW,9.2,-,N/A,,Overcast,340,2013-10-19 19:55:00
3:55 PM,50.0,34.0,54,29.83,10.0,North,3.5,-,N/A,,Mostly Cloudy,360,2013-10-19 20:55:00
4:55 PM,50.0,35.1,57,29.82,10.0,North,5.8,-,N/A,,Mostly Cloudy,10,2013-10-19 21:55:00
5:55 PM,48.0,36.0,63,29.81,10.0,East,4.6,-,N/A,,Overcast,80,2013-10-19 22:55:00
6:55 PM,45.0,35.1,68,29.81,10.0,ESE,4.6,-,N/A,,Overcast,110,2013-10-19 23:55:00
7:55 PM,45.0,35.1,68,29.81,10.0,East,4.6,-,N/A,,Overcast,100,2013-10-20 00:55:00
8:55 PM,44.1,34.0,68,29.79,10.0,SE,6.9,-,N/A,,Overcast,130,2013-10-20 01:55:00
9:55 PM,44.1,34.0,68,29.76,10.0,SE,5.8,-,N/A,,Overcast,130,2013-10-20 02:55:00
10:55 PM,43.0,35.1,74,29.76,10.0,SE,4.6,-,0.00,,Overcast,130,2013-10-20 03:55:00
11:55 PM,44.1,35.1,71,29.75,10.0,ESE,5.8,-,N/A,,Overcast,120,2013-10-20 04:55:00